Weather reports worldwide

Advertisment
Goudhurst, United Kingdom (99126): temperature & dewpoint: 11.08.2017 08:00:00 - 17.08.2017 08:00:00 (BST)Goudhurst, United Kingdom (99126): visibility: 11.08.2017 08:00:00 - 17.08.2017 08:00:00 (BST)Goudhurst, United Kingdom (99126): precipitation: 11.08.2017 08:00:00 - 17.08.2017 08:00:00 (BST)
Date & Time tt [°C] td [°C] vv [km] rr [mm]
17.08.2017 08:00:00 16,9 16,6 - 0,0
17.08.2017 07:00:00 16,4 16,1 - 0,4
17.08.2017 06:00:00 15,8 15,4 - 1,2
17.08.2017 05:00:00 15,9 15,3 - 0,2
17.08.2017 04:00:00 15,1 14,5 - 0,0
17.08.2017 03:00:00 14,6 14,0 - 0,2
17.08.2017 02:00:00 14,3 13,5 - 0,8
17.08.2017 01:00:00 14,2 12,8 - 0,0
17.08.2017 00:00:00 13,3 12,2 - 0,0
16.08.2017 23:00:00 13,6 12,2 - 0,0
16.08.2017 22:00:00 13,5 11,7 - 0,0
16.08.2017 21:00:00 14,9 11,9 - 0,0
16.08.2017 20:00:00 16,3 12,1 - 0,0
16.08.2017 19:00:00 19,0 10,5 - 0,0
16.08.2017 18:00:00 19,7 11,1 - 0,0
16.08.2017 17:00:00 20,1 10,9 - 0,0
16.08.2017 16:00:00 20,5 11,9 - 0,0
16.08.2017 15:00:00 19,7 10,0 - 0,0
16.08.2017 14:00:00 20,5 10,8 - 0,0
16.08.2017 13:00:00 19,9 10,4 - 0,0
16.08.2017 12:00:00 19,6 12,4 - 0,0
16.08.2017 11:00:00 18,1 13,5 - 0,0
16.08.2017 10:00:00 16,3 13,3 5 0,0
16.08.2017 09:00:00 14,0 13,8 - 0,0
16.08.2017 08:00:00 11,6 11,5 - 0,0
16.08.2017 07:00:00 9,3 9,1 - 0,0
16.08.2017 06:00:00 8,4 8,1 - 0,0
16.08.2017 05:00:00 8,9 8,6 - 0,0
16.08.2017 04:00:00 9,2 8,7 - 0,0
16.08.2017 03:00:00 10,1 9,4 - 0,0
16.08.2017 02:00:00 11,5 9,6 - 0,0
16.08.2017 01:00:00 12,0 10,8 - 0,0
16.08.2017 00:00:00 12,8 11,6 - 0,0
15.08.2017 23:00:00 14,7 12,7 - 0,0
15.08.2017 22:00:00 16,1 13,8 - 0,0
15.08.2017 21:00:00 16,3 13,8 - 0,0
15.08.2017 20:00:00 17,7 13,7 - 0,0
15.08.2017 19:00:00 19,7 14,1 - 0,0
15.08.2017 18:00:00 21,2 14,5 - 0,0
15.08.2017 17:00:00 21,3 14,5 - 0,0
15.08.2017 16:00:00 22,1 13,5 - 0,0
15.08.2017 15:00:00 22,1 14,0 - 0,0
15.08.2017 14:00:00 21,5 14,9 - 0,0
15.08.2017 13:00:00 21,1 14,3 - 0,0
15.08.2017 12:00:00 20,3 15,2 - 0,0
15.08.2017 11:00:00 18,8 15,0 - 0,0
15.08.2017 10:00:00 17,2 15,3 10 0,0
15.08.2017 09:00:00 15,2 15,0 - 0,0
15.08.2017 08:00:00 14,6 14,3 - 0,6
15.08.2017 07:00:00 14,3 14,0 - 2,4
15.08.2017 06:00:00 14,2 13,9 - 2,0
15.08.2017 05:00:00 14,1 13,8 - 4,0
15.08.2017 04:00:00 13,9 13,2 - 0,2
15.08.2017 03:00:00 13,9 12,9 - 0,0
15.08.2017 02:00:00 14,7 13,5 - 0,0
15.08.2017 01:00:00 14,0 13,6 - 0,0
15.08.2017 00:00:00 13,1 12,5 - 0,0
14.08.2017 23:00:00 13,9 12,9 - 0,0
14.08.2017 22:00:00 14,4 11,5 10 0,0
14.08.2017 21:00:00 16,4 12,1 - 0,0
14.08.2017 20:00:00 17,9 12,1 - 0,0
14.08.2017 19:00:00 19,2 10,9 - 0,0
14.08.2017 18:00:00 20,2 9,9 - 0,0
14.08.2017 17:00:00 21,2 8,9 - 0,0
14.08.2017 16:00:00 21,8 10,2 - 0,0
14.08.2017 15:00:00 22,2 9,4 - 0,0
14.08.2017 14:00:00 22,8 10,7 - 0,0
14.08.2017 13:00:00 21,7 11,8 - 0,0
14.08.2017 12:00:00 20,8 11,0 - 0,0
14.08.2017 11:00:00 20,4 13,0 - 0,0
14.08.2017 10:00:00 19,0 12,8 3,6 0,0
14.08.2017 09:00:00 16,8 13,0 - 0,0
14.08.2017 08:00:00 11,7 11,6 - 0,0
14.08.2017 07:00:00 8,4 8,2 - 0,0
14.08.2017 06:00:00 8,1 7,8 - 0,0
14.08.2017 05:00:00 8,8 8,5 - 0,0
14.08.2017 04:00:00 9,7 9,5 - 0,0
14.08.2017 03:00:00 9,5 9,3 - 0,0
14.08.2017 02:00:00 9,4 9,1 - 0,0
14.08.2017 01:00:00 9,6 9,1 - 0,0
14.08.2017 00:00:00 10,4 9,5 - 0,0
13.08.2017 23:00:00 11,2 10,1 - 0,0
13.08.2017 22:00:00 11,5 9,8 - 0,0
13.08.2017 21:00:00 13,5 9,8 - 0,0
13.08.2017 20:00:00 16,5 9,7 - 0,0
13.08.2017 19:00:00 19,1 9,9 - 0,0
13.08.2017 18:00:00 19,9 9,7 - 0,0
13.08.2017 17:00:00 19,0 10,3 - 0,0
13.08.2017 16:00:00 21,1 7,3 - 0,0
13.08.2017 15:00:00 20,6 6,2 - 0,0
13.08.2017 14:00:00 20,0 6,7 - 0,0
13.08.2017 13:00:00 19,7 7,1 - 0,0
13.08.2017 12:00:00 19,5 7,3 - 0,0
13.08.2017 11:00:00 18,1 8,1 - 0,0
13.08.2017 10:00:00 16,9 8,0 - 0,0
13.08.2017 09:00:00 15,2 10,1 - 0,0
13.08.2017 08:00:00 13,4 9,4 - 0,0
13.08.2017 07:00:00 12,6 10,0 - 0,0
13.08.2017 06:00:00 11,4 9,4 - 0,0
13.08.2017 05:00:00 12,9 10,6 - 0,0
13.08.2017 04:00:00 12,6 11,0 - 0,0
13.08.2017 03:00:00 11,9 11,1 - 0,0
13.08.2017 02:00:00 12,7 11,4 - 0,0
13.08.2017 01:00:00 13,5 11,3 - 0,0
13.08.2017 00:00:00 15,4 11,7 - 0,0
12.08.2017 23:00:00 15,6 11,0 - 0,0
12.08.2017 22:00:00 14,3 10,9 - 0,0
12.08.2017 21:00:00 15,0 11,1 - 0,0
12.08.2017 20:00:00 17,7 11,1 - 0,0
12.08.2017 19:00:00 19,8 11,3 - 0,0
12.08.2017 18:00:00 19,6 11,5 - 0,0
12.08.2017 17:00:00 20,6 11,2 - 0,0
12.08.2017 16:00:00 19,8 11,2 - 0,0
12.08.2017 15:00:00 21,2 12,9 - 0,0
12.08.2017 14:00:00 20,8 13,8 - 0,0
12.08.2017 13:00:00 21,1 12,4 - 0,0
12.08.2017 12:00:00 21,1 14,5 - 0,0
12.08.2017 11:00:00 19,9 13,5 - 0,0
12.08.2017 10:00:00 18,5 14,1 3,6 0,0
12.08.2017 09:00:00 17,4 15,0 - 0,0
12.08.2017 08:00:00 16,9 15,2 - 0,0
12.08.2017 07:00:00 16,1 15,3 - 0,0
12.08.2017 06:00:00 16,2 15,0 - 0,0
12.08.2017 05:00:00 16,3 15,0 - 0,0
12.08.2017 04:00:00 16,2 15,1 - 0,0
12.08.2017 03:00:00 16,2 15,1 - 0,0
12.08.2017 02:00:00 15,9 15,0 - 0,0
12.08.2017 01:00:00 15,6 14,8 - 0,2
12.08.2017 00:00:00 15,5 14,4 - 0,0
11.08.2017 23:00:00 15,8 13,6 - 0,0
11.08.2017 22:00:00 15,3 13,2 - 0,0
11.08.2017 21:00:00 15,7 12,9 - 0,0
11.08.2017 20:00:00 16,2 12,8 - 0,0
11.08.2017 19:00:00 16,6 12,7 - 0,0
11.08.2017 18:00:00 17,8 12,0 - 0,0
11.08.2017 17:00:00 18,0 12,0 - 0,0
11.08.2017 16:00:00 18,5 11,8 - 0,0
11.08.2017 15:00:00 19,5 10,4 - 0,0
11.08.2017 14:00:00 20,3 9,2 - 0,0
11.08.2017 13:00:00 19,9 10,8 - 0,0
11.08.2017 12:00:00 19,7 11,7 - 0,0
11.08.2017 11:00:00 19,1 9,6 - 0,0
11.08.2017 10:00:00 18,7 11,9 10 0,0
11.08.2017 09:00:00 16,6 13,7 - 0,0
11.08.2017 08:00:00 13,7 13,7 - 0,0

tt = temperature
td = dewpoint
vv = visibility
rr = precipitation

Next stations